Waarnemingen

Advertentie
Mijn weer
Angelholm, Zweden (2607): temperatuur & dauwpunt: 19.05.2019 21:00:00 - 25.05.2019 21:00:00 (CEST)Angelholm, Zweden (2607): windsnelheid: 19.05.2019 21:00:00 - 25.05.2019 21:00:00 (CEST)Angelholm, Zweden (2607): windrichting: 19.05.2019 21:00:00 - 25.05.2019 21:00:00 (CEST)Angelholm, Zweden (2607): luchtdruk: 19.05.2019 21:00:00 - 25.05.2019 21:00:00 (CEST)Angelholm, Zweden (2607): zicht: 19.05.2019 21:00:00 - 25.05.2019 21:00:00 (CEST)
Datum & Tijd tt [°C] td [°C] ff [km/u] ff [kn] dd ppp [hPa] vv [km]
25.05.2019 21:00:00 12,3 7,4 18 10 W 1010,5 10
25.05.2019 20:00:00 12,4 8,1 26 14 W 1010,8 10
25.05.2019 19:00:00 13,5 9,0 24 13 WNW 1010,9 10
25.05.2019 18:00:00 14,6 9,4 21 11 W 1010,9 10
25.05.2019 17:00:00 14,9 9,9 18 10 WZW 1011,1 10
25.05.2019 16:00:00 15,0 9,6 16 9 W 1011,3 10
25.05.2019 15:00:00 13,6 8,6 21 11 W 1011,5 10
25.05.2019 14:00:00 12,4 8,1 22 12 WZW 1011,5 10
25.05.2019 13:00:00 12,1 8,4 18 10 WZW 1011,6 10
25.05.2019 12:00:00 11,7 8,4 18 10 W 1011,5 10
25.05.2019 11:00:00 11,5 8,4 16 9 W 1011,3 10
25.05.2019 10:00:00 11,1 8,5 16 9 W 1010,9 10
25.05.2019 09:00:00 11,2 8,2 18 10 W 1010,5 10
25.05.2019 08:00:00 11,2 8,2 18 10 W 1010,0 10
25.05.2019 07:00:00 10,7 7,9 16 9 W 1009,7 10
25.05.2019 06:00:00 10,7 8,3 18 10 W 1009,5 10
25.05.2019 05:00:00 10,7 7,9 16 9 W 1009,2 10
25.05.2019 04:00:00 10,7 7,9 18 10 WZW 1009,0 10
25.05.2019 03:00:00 10,6 7,5 21 11 W 1009,0 10
25.05.2019 02:00:00 10,8 7,3 22 12 W 1008,9 10
25.05.2019 01:00:00 10,7 7,0 21 11 W 1008,9 10
25.05.2019 00:00:00 10,9 7,2 26 14 W 1008,7 10
24.05.2019 23:00:00 11,2 7,7 22 12 W 1008,5 10
24.05.2019 22:00:00 11,6 7,1 21 11 W 1008,4 10
24.05.2019 21:00:00 12,3 8,2 22 12 WZW 1008,2 10
24.05.2019 20:00:00 12,3 9,5 26 14 WZW 1007,9 10
24.05.2019 19:00:00 12,5 9,0 28 15 WZW 1007,9 10
24.05.2019 18:00:00 12,7 9,0 29 16 WZW 1008,1 10
24.05.2019 17:00:00 12,6 9,6 24 13 WZW 1008,2 10
24.05.2019 16:00:00 12,1 9,8 26 14 WZW 1008,6 10
24.05.2019 15:00:00 12,0 10,1 28 15 WZW 1008,7 7
24.05.2019 14:00:00 13,1 9,5 18 10 WZW 1008,6 9
24.05.2019 13:00:00 15,4 7,4 29 16 ZW 1008,6 10
24.05.2019 12:00:00 16,6 6,1 24 13 ZZW 1008,9 10
24.05.2019 11:00:00 15,4 5,9 21 11 ZZW 1009,6 10
24.05.2019 10:00:00 14,7 5,5 18 10 ZZW 1010,1 10
24.05.2019 09:00:00 14,1 6,5 16 9 ZW 1010,7 10
24.05.2019 08:00:00 13,0 6,6 15 8 ZW 1011,0 10
24.05.2019 07:00:00 12,4 7,5 11 6 ZZW 1011,0 10
24.05.2019 06:00:00 12,1 7,8 8 4 ZZW 1011,1 10
24.05.2019 05:00:00 12,7 8,8 11 6 ZZW 1011,5 10
24.05.2019 04:00:00 13,0 8,9 11 6 ZZW 1011,8 10
24.05.2019 03:00:00 13,4 8,5 15 8 Z 1012,1 10
24.05.2019 02:00:00 13,7 8,7 9 5 Z 1012,5 10
24.05.2019 01:00:00 13,4 8,7 9 5 Z 1013,0 10
24.05.2019 00:00:00 13,4 8,9 11 6 Z 1013,5 10
23.05.2019 23:00:00 13,6 8,6 11 6 Z 1013,8 10
23.05.2019 22:00:00 14,5 8,9 11 6 Z 1014,0 10
23.05.2019 21:00:00 16,2 8,9 13 7 Z 1014,0 10
23.05.2019 20:00:00 17,0 8,9 15 8 ZZW 1014,1 10
23.05.2019 19:00:00 17,0 9,4 13 7 ZW 1014,3 10
23.05.2019 18:00:00 17,1 8,8 13 7 W 1014,5 10
23.05.2019 17:00:00 17,1 9,0 13 7 W 1015,0 10
23.05.2019 16:00:00 16,1 7,8 15 8 WNW 1015,5 10
23.05.2019 15:00:00 15,7 7,2 13 7 W 1015,9 10
23.05.2019 14:00:00 14,8 7,4 9 5 W 1016,3 10
23.05.2019 13:00:00 13,7 6,3 13 7 W 1016,5 10
23.05.2019 12:00:00 13,2 6,8 16 9 W 1016,6 10
23.05.2019 11:00:00 12,7 6,9 18 10 W 1016,7 10
23.05.2019 10:00:00 12,6 7,5 21 11 W 1016,5 10
23.05.2019 09:00:00 12,1 7,2 22 12 W 1016,1 10
23.05.2019 08:00:00 11,1 7,2 21 11 WNW 1015,8 10
23.05.2019 07:00:00 10,9 7,4 8 4 NW 1015,4 10
23.05.2019 06:00:00 7,9 6,5 9 5 WNW 1015,4 10
23.05.2019 05:00:00 6,4 5,0 11 6 NW 1015,4 10
23.05.2019 04:00:00 9,4 6,5 16 9 WNW 1015,4 10
23.05.2019 03:00:00 10,3 6,8 21 11 WNW 1015,4 10
23.05.2019 02:00:00 10,6 7,3 22 12 WNW 1015,2 10
23.05.2019 01:00:00 11,0 7,7 21 11 WNW 1015,1 10
23.05.2019 00:00:00 11,0 7,5 29 16 WNW 1014,9 10
22.05.2019 23:00:00 11,6 7,5 29 16 WNW 1014,5 10
22.05.2019 22:00:00 11,7 8,4 26 14 WNW 1014,3 10
22.05.2019 21:00:00 11,7 8,5 26 14 WNW 1014,0 10
22.05.2019 20:00:00 11,7 9,6 31 17 WNW 1013,6 10
22.05.2019 19:00:00 11,8 10,0 29 16 WNW 1013,3 10
22.05.2019 18:00:00 12,2 10,4 29 16 WNW 1012,5 10
22.05.2019 17:00:00 12,5 10,6 29 16 WNW 1012,3 10
22.05.2019 16:00:00 12,9 11,1 31 17 WNW 1011,9 10
22.05.2019 15:00:00 13,1 11,8 31 17 W 1011,5 4,5
22.05.2019 14:00:00 15,0 13,5 22 12 W 1011,2 1,5
22.05.2019 13:00:00 15,4 13,8 21 11 W 1010,7 8
22.05.2019 12:00:00 15,7 13,5 13 7 WNW 1010,1 9
22.05.2019 11:00:00 14,2 12,9 13 7 W 1010,3 6
22.05.2019 10:00:00 15,4 13,4 0 0 N 1009,9 10
22.05.2019 09:00:00 14,6 13,0 0 0 N 1009,6 9
22.05.2019 08:00:00 13,9 12,6 5 3 O 1009,6 10
22.05.2019 07:00:00 13,4 12,5 5 3 OZO 1009,3 6
22.05.2019 06:00:00 12,8 12,2 5 3 - 1009,0 4,8
22.05.2019 05:00:00 13,0 12,2 5 3 ZZO 1009,0 7
22.05.2019 04:00:00 13,3 12,7 8 4 ZZO 1008,7 3,5
22.05.2019 03:00:00 13,3 12,5 9 5 ZO 1008,7 7
22.05.2019 02:00:00 13,4 12,5 11 6 ZO 1008,6 10
22.05.2019 01:00:00 13,8 12,5 13 7 O 1008,6 10
22.05.2019 00:00:00 14,5 13,5 13 7 OZO 1008,5 8
21.05.2019 23:00:00 14,9 13,6 13 7 ZO 1008,4 10
21.05.2019 22:00:00 15,5 13,9 13 7 ZO 1008,2 10
21.05.2019 21:00:00 16,5 14,7 15 8 O 1007,8 10
21.05.2019 20:00:00 17,0 14,8 16 9 O 1007,3 10
21.05.2019 19:00:00 18,9 16,7 0 0 N 1007,0 10
21.05.2019 18:00:00 18,5 16,7 5 3 NW 1006,7 10
21.05.2019 17:00:00 16,7 15,7 13 7 NW 1006,6 2,7
21.05.2019 16:00:00 19,3 15,6 18 10 WNW 1006,2 10
21.05.2019 15:00:00 20,7 15,9 15 8 WZW 1005,9 10
21.05.2019 14:00:00 20,1 15,5 16 9 W 1005,8 10
21.05.2019 13:00:00 23,0 16,5 4 2 OZO 1005,3 10
21.05.2019 12:00:00 21,8 15,9 9 5 OZO 1005,6 10
21.05.2019 11:00:00 20,3 15,1 15 8 OZO 1005,7 10
21.05.2019 10:00:00 19,7 15,8 11 6 O 1005,6 10
21.05.2019 09:00:00 18,3 14,6 5 3 ONO 1005,3 10
21.05.2019 08:00:00 17,6 14,5 8 4 NO 1005,4 10
21.05.2019 07:00:00 16,3 14,8 0 0 N 1005,6 10
21.05.2019 06:00:00 16,3 14,0 4 2 - 1005,6 10
21.05.2019 05:00:00 16,4 14,1 9 5 NO 1005,4 10
21.05.2019 04:00:00 13,2 12,4 5 3 N 1005,7 10
21.05.2019 03:00:00 14,2 13,2 4 2 ZZW 1006,1 10
21.05.2019 02:00:00 13,2 12,4 8 4 WNW 1005,8 10
21.05.2019 01:00:00 14,0 12,2 5 3 W 1006,7 10
21.05.2019 00:00:00 13,5 12,2 5 3 Z 1006,9 10
20.05.2019 23:00:00 13,6 11,8 11 6 WNW 1006,9 10
20.05.2019 22:00:00 14,5 12,7 15 8 NW 1007,1 10
20.05.2019 21:00:00 16,1 13,6 15 8 WNW 1007,0 10
20.05.2019 20:00:00 17,9 14,6 15 8 W 1006,9 10
20.05.2019 19:00:00 18,4 14,5 18 10 WNW 1007,0 10
20.05.2019 18:00:00 19,4 15,3 16 9 WNW 1007,1 10
20.05.2019 17:00:00 19,9 15,3 15 8 WNW 1006,8 10
20.05.2019 16:00:00 20,1 14,0 8 4 ZO 1007,7 10
20.05.2019 15:00:00 19,5 14,3 13 7 OZO 1007,8 10
20.05.2019 14:00:00 18,2 14,5 11 6 O 1008,1 10
20.05.2019 13:00:00 17,2 14,7 11 6 OZO 1007,8 10
20.05.2019 12:00:00 16,3 14,5 15 8 ZO 1007,9 10
20.05.2019 11:00:00 16,4 14,6 11 6 OZO 1007,6 10
20.05.2019 10:00:00 15,7 14,6 8 4 OZO 1007,5 10
20.05.2019 09:00:00 15,7 14,6 9 5 OZO 1007,2 10
20.05.2019 08:00:00 15,5 14,5 9 5 OZO 1007,2 10
20.05.2019 07:00:00 15,3 14,5 5 3 OZO 1007,2 10
20.05.2019 06:00:00 15,1 14,3 0 0 N 1007,1 10
20.05.2019 05:00:00 14,7 14,2 5 3 NO 1007,2 10
20.05.2019 04:00:00 15,0 14,5 0 0 N 1007,4 10
20.05.2019 03:00:00 15,1 14,6 2 1 NNO 1008,1 4,4
20.05.2019 02:00:00 15,3 14,7 9 5 NO 1008,5 8
20.05.2019 01:00:00 15,6 14,8 11 6 NO 1008,8 5
20.05.2019 00:00:00 16,3 14,7 13 7 ONO 1009,0 10
19.05.2019 23:00:00 16,7 14,5 8 4 ONO 1009,3 10
19.05.2019 22:00:00 15,2 13,7 4 2 NW 1009,4 10
19.05.2019 21:00:00 15,2 13,4 5 3 ZW 1009,7 10

tt = temperatuur
td = dauwpunt
ff = windsnelheid
dd = windrichting
ppp = luchtdruk
vv = zicht

Weerstations in de omgeving